This demonstration page uses our WeatherBlox Daily Observations layout. Learn more.

Left ArrowRight Arrow

Hourly Observations for April 13, 2018

Temp ( °F °C ) Dew Point ( °F °C ) Humidity (%) Winds ( mph kmh ) Pressure ( in mb ) Visibility ( mi km ) Precip ( " mm )
12:56 am 00:56 Clear 52 11.1 41 5 66 66 NNE 22 35 29.32 993 10 16 0.00 0.00
1:56 am 01:56 Clear 50 10 41 5 71 71 NE 21 33 29.30 992 10 16 0.00 0.00
2:56 am 02:56 Clear 48 8.9 41 5 77 77 NE 25 41 29.27 991 10 16 0.00 0.00
4:56 am 04:56 Mostly Cloudy 45 7.2 42 5.6 90 90 N 20 31 29.30 992 10 16 0.00 0.00
5:22 am 05:22 Cloudy 46 8 43 6 87 87 N 21 33 29.38 995 10 16 0.00 0.00
5:56 am 05:56 Cloudy 46 7.8 42 5.6 86 86 N 24 39 29.32 993 10 16 0.00 0.00
6:56 am 06:56 Cloudy 45 7.2 40 4.4 83 83 N 25 41 29.33 993 8 13 0.00 0.00
7:56 am 07:56 Cloudy 43 6.1 39 3.9 86 86 N 24 39 29.37 995 7 11 0.00 0.00
8:56 am 08:56 Cloudy with Mist and Fog 41 5 39 3.9 93 93 N 25 41 29.39 995 4 6 0.00 0.03
9:56 am 09:56 Cloudy with Light Rain 41 5 39 3.9 93 93 NNE 26 43 29.39 995 4 6 0.00 0.03
10:56 am 10:56 Cloudy with Light Rain 41 5 39 3.9 93 93 N 24 39 29.43 997 4 6 0.00 0.03
11:27 am 11:27 Cloudy with Light Rain 41 5 39 4 93 93 N 24 39 29.50 999 3 4 0.00 0.03
11:56 am 11:56 Cloudy with Light Rain 40 4.4 39 3.9 97 97 N 23 37 29.41 996 3 5 0.00 0.03
12:56 pm 12:56 Cloudy with Light Rain 40 4.4 38 3.3 93 93 N 26 43 29.42 996 3 5 0.00 0.03
1:56 pm 13:56 Cloudy with Light Rain 40 4.4 38 3.3 93 93 N 25 41 29.41 996 5 8 0.00 0.03
2:53 pm 14:53 Cloudy with Light Rain 39 4 37 3 93 93 N 22 35 29.53 1000 2 3 0.00 0.00
2:56 pm 14:56 Cloudy with Light Rain 39 3.9 38 3.3 96 96 N 18 30 29.47 998 2 3 0.00 0.03
3:43 pm 15:43 Cloudy with Light Rain 37 3 36 2 93 93 N 30 48 29.56 1001 3 4 0.00 0.00
3:56 pm 15:56 Cloudy with Light Rain 38 3.3 36 2.2 93 93 N 24 39 29.50 999 3 5 0.00 0.03
4:08 pm 16:08 Cloudy with Light Rain 37 3 36 2 93 93 N 26 43 29.56 1001 3 4 0.00 0.03
4:25 pm 16:25 Cloudy with Light Rain 37 3 36 2 93 93 N 28 44 29.56 1001 2 2 0.00 0.00
4:51 pm 16:51 Cloudy with Light Rain 36 2 34 1 93 93 N 31 50 29.56 1001 3 4 0.00 0.00
4:56 pm 16:56 Cloudy with Light Rain 36 2.2 34 1.1 93 93 N 30 48 29.52 1000 3 5 0.01 0.25
5:56 pm 17:56 Cloudy with Light Wintry Mix 34 1.1 33 0.6 97 97 N 24 39 29.55 1001 3 5 0.00 0.03
6:56 pm 18:56 Cloudy with Light Wintry Mix 33 0.6 31 -0.6 92 92 N 29 46 29.61 1003 2 3 0.00 0.03
7:45 pm 19:45 Windy with Snow Likely 32 0 30 -1 93 93 N 25 41 29.71 1006 2 3 0.00 0.00
7:56 pm 19:56 Windy with Snow Likely 32 0 31 -0.6 96 96 N 25 41 29.65 1004 2 3 0.02 0.51
8:20 pm 20:20 Windy with Snow Likely 30 -1 30 -1 100 100 N 24 39 29.74 1007 2 3 0.01 0.25
8:39 pm 20:39 Windy with Snow Likely 30 -1 30 -1 100 100 N 26 43 29.74 1007 3 5 0.00 0.00
8:56 pm 20:56 Windy with Snow Likely 31 -0.6 29 -1.7 92 92 N 25 41 29.68 1005 3 5 0.01 0.25
9:18 pm 21:18 Windy with Snow Likely 30 -1 28 -2 93 93 NNW 30 48 29.74 1007 3 5 0.00 0.03
9:39 pm 21:39 Windy with Snow Likely 30 -1 28 -2 93 93 N 29 46 29.74 1007 3 4 0.00 0.00
9:56 pm 21:56 Windy with Snow Likely 29 -1.7 28 -2.2 96 96 N 31 50 29.71 1006 2 3 0.00 0.03
10:08 pm 22:08 Windy with Snow Likely 28 -2 28 -2 100 100 N 31 50 29.80 1009 2 3 0.00 0.03
10:23 pm 22:23 Windy with Snow Likely 28 -2 28 -2 100 100 NNW 25 41 29.80 1009 2 2 0.00 0.00
10:56 pm 22:56 Windy with Snow Likely 28 -2.2 27 -2.8 96 96 N 28 44 29.72 1006 2 2 0.01 0.25
11:07 pm 23:07 Windy with Snow Likely 28 -2 27 -3 93 93 N 31 50 29.80 1009 2 3 0.00 0.03
11:14 pm 23:14 Windy with Snow Likely 28 -2 27 -3 93 93 N 35 56 29.80 1009 2 3 0.00 0.03
11:28 pm 23:28 Windy with Snow Likely 28 -2 27 -3 93 93 N 35 56 29.80 1009 2 2 0.00 0.03
11:44 pm 23:44 Windy with Snow Likely 28 -2 27 -3 93 93 N 31 50 29.80 1009 1 2 0.00 0.03
11:52 pm 23:52 Windy with Snow Likely 27 -3 27 -3 100 100 N 31 50 29.80 1009 1 1 0.01 0.25
11:56 pm 23:56 Windy with Snow Likely 27 -2.8 26 -3.3 96 96 N 36 57 29.72 1007 1 1 0.01 0.25

Powered by AerisWeather